FW1093 Weather Reports


time (UTC)temp
C
wind
direction
speed
KPH
gust
KPH
rain 1hr
cm
rain 24hr
cm
rain mn
cm
humidity
%
barometer
mb
20200803152327 26 290 1.6 6.4 0.00 0.58 0.00 69 1016.6
20200803151312 26 15 0.0 6.4 0.00 0.58 0.00 67 1016.6
20200803150325 26 238 0.0 4.8 0.00 0.58 0.00 71 1016.7
20200803145329 26 198 0.0 1.6 0.00 0.58 0.00 72 1016.8
20200803144314 25 73 0.0 4.8 0.00 0.58 0.00 72 1016.5
20200803143329 25 9 0.0 4.8 0.00 0.58 0.00 75 1016.6
20200803142316 25 275 0.0 4.8 0.00 0.58 0.00 74 1016.7
20200803141321 25 338 0.0 4.8 0.00 0.58 0.00 74 1016.4
20200803140337 25 181 0.0 4.8 0.00 0.58 0.00 75 1016.4
20200803135325 25 355 0.0 1.6 0.00 0.58 0.00 74 1016.5
20200803134314 25 200 0.0 3.2 0.00 0.58 0.00 76 1016.5
20200803133329 25 2 0.0 8.0 0.00 0.58 0.00 74 1016.2
20200803132318 25 335 0.0 4.8 0.00 0.58 0.00 76 1016.1
20200803131333 24 349 1.6 4.8 0.00 0.58 0.00 77 1016.1
20200803130328 23 27 1.6 4.8 0.00 0.58 0.00 78 1016.2
20200803125316 23 148 0.0 4.8 0.00 0.58 0.00 80 1016.2
20200803124331 23 148 0.0 0.0 0.00 0.58 0.00 81 1016.2
20200803123319 23 288 0.0 3.2 0.00 0.58 0.00 82 1015.9
20200803122318 22 137 0.0 0.0 0.00 0.58 0.00 84 1015.9
20200803121324 22 137 0.0 1.6 0.00 0.58 0.00 84 1015.8
20200803120313 22 58 0.0 0.0 0.00 0.58 0.00 84 1015.7
20200803115326 22 58 0.0 0.0 0.00 0.58 0.00 84 1015.5
20200803114313 22 58 0.0 3.2 0.00 0.58 0.00 85 1015.3
20200803113331 22 73 0.0 3.2 0.00 0.58 0.00 86 1015.4
20200803112326 22 143 0.0 0.0 0.00 0.58 0.00 88 1015.4
20200803111316 22 143 0.0 0.0 0.00 0.58 0.00 90 1015.3
20200803110328 22 143 0.0 0.0 0.00 0.58 0.00 91 1015.1
20200803105334 22 143 0.0 0.0 0.00 0.58 0.00 92 1015.1
20200803104321 22 144 0.0 0.0 0.00 0.58 0.00 93 1014.9
20200803103335 22 144 0.0 0.0 0.00 0.58 0.00 93 1014.7
20200803102329 22 143 0.0 0.0 0.00 0.58 0.00 94 1014.6
20200803101315 22 143 0.0 0.0 0.00 0.58 0.00 93 1014.6
20200803100321 22 143 0.0 0.0 0.00 0.58 0.00 93 1014.6
20200803095326 22 143 0.0 0.0 0.00 0.58 0.00 92 1014.3
20200803094330 22 143 0.0 0.0 0.00 0.58 0.00 92 1014.2
20200803093333 22 143 0.0 1.6 0.00 0.58 0.00 93 1014.1
20200803092331 22 143 0.0 0.0 0.00 0.58 0.00 96 1014.1
20200803091337 22 143 0.0 0.0 0.00 0.58 0.00 98 1013.9
20200803090324 22 143 0.0 0.0 0.00 0.58 0.00 98 1013.8
20200803085329 23 143 0.0 0.0 0.00 0.58 0.00 99 1013.7
20200803084313 23 143 0.0 0.0 0.00 0.58 0.00 99 1013.5
20200803083327 23 144 0.0 0.0 0.00 0.58 0.00 98 1013.3
20200803082322 23 143 0.0 0.0 0.00 0.58 0.00 98 1013.2
20200803081335 23 143 0.0 0.0 0.00 0.58 0.00 98 1013.2
20200803080323 23 143 0.0 0.0 0.00 0.58 0.00 98 1013.1
20200803075328 23 143 0.0 0.0 0.00 0.58 0.00 98 1013.0
20200803074315 23 143 0.0 0.0 0.00 0.58 0.00 98 1013.0
20200803073329 23 143 0.0 0.0 0.00 0.58 0.00 98 1013.0
20200803072313 23 143 0.0 0.0 0.00 0.58 0.00 98 1013.0
20200803071320 23 143 0.0 0.0 0.00 0.58 0.00 98 1012.9
20200803070325 24 143 0.0 0.0 0.00 0.58 0.00 98 1012.8
20200803065326 24 143 0.0 0.0 0.00 0.58 0.00 98 1012.8
20200803064314 24 143 0.0 0.0 0.00 0.58 0.00 97 1012.8
20200803063319 24 144 0.0 0.0 0.00 0.58 0.00 97 1012.7
20200803062322 24 143 0.0 0.0 0.00 0.58 0.00 97 1012.6
20200803061328 24 143 0.0 0.0 0.00 0.58 0.00 97 1012.7
20200803060316 24 143 0.0 0.0 0.00 0.58 0.00 96 1012.6
20200803055320 25 144 0.0 0.0 0.00 0.58 0.00 96 1012.6
20200803054334 25 143 0.0 1.6 0.00 0.58 0.00 96 1012.6
20200803053321 25 139 0.0 0.0 0.00 0.58 0.00 96 1012.6
20200803052326 25 139 0.0 0.0 0.00 0.58 0.00 96 1012.5
20200803051311 25 160 0.0 0.0 0.00 0.58 0.00 96 1012.5
20200803050328 25 160 0.0 0.0 0.00 0.58 0.00 96 1012.6
20200803045333 25 160 0.0 0.0 0.00 0.58 0.00 96 1012.6
20200803044321 25 159 0.0 0.0 0.00 0.58 0.00 96 1012.6
20200803043335 25 156 0.0 0.0 0.00 0.58 0.00 96 1012.5
20200803042321 25 156 0.0 1.6 0.00 0.58 0.00 95 1012.6
20200803041331 25 153 0.0 0.0 0.00 0.58 0.00 95 1012.5
20200803040319 25 159 0.0 0.0 0.00 0.58 0.00 96 1012.5
20200803035326 25 159 0.0 0.0 0.00 0.58 0.58 96 1012.4
20200803034313 25 146 0.0 0.0 0.00 0.58 0.58 96 1012.5
20200803033329 25 167 0.0 0.0 0.00 0.58 0.58 96 1012.5
20200803032326 25 167 0.0 0.0 0.00 0.58 0.58 96 1012.4
20200803031316 25 167 0.0 0.0 0.00 0.58 0.58 96 1012.4
20200803030330 24 167 0.0 0.0 0.00 0.58 0.58 97 1012.5
20200803025315 24 146 0.0 0.0 0.00 0.58 0.58 97 1012.4
20200803024323 24 146 0.0 0.0 0.00 0.58 0.58 97 1012.5
20200803023337 24 146 0.0 0.0 0.00 0.58 0.58 97 1012.5
20200803022326 24 146 0.0 0.0 0.00 0.58 0.58 98 1012.4
20200803021313 24 146 0.0 0.0 0.00 0.58 0.58 98 1012.4
20200803020327 24 146 0.0 0.0 0.00 0.58 0.58 98 1012.4
20200803015331 24 146 0.0 0.0 0.00 0.58 0.58 97 1012.3
20200803014337 24 146 0.0 0.0 0.00 0.58 0.58 97 1012.4
20200803013323 24 146 0.0 0.0 0.00 0.58 0.58 97 1012.4
20200803012315 25 146 0.0 1.6 0.00 0.58 0.58 97 1012.1
20200803011331 25 144 0.0 0.0 0.00 0.58 0.58 97 1012.0
20200803010317 25 165 0.0 1.6 0.00 0.58 0.58 96 1012.0
20200803005331 25 164 0.0 0.0 0.00 0.58 0.58 96 1011.9
20200803004318 25 164 0.0 0.0 0.00 0.58 0.58 95 1011.8
20200803003333 25 164 0.0 0.0 0.00 0.58 0.58 95 1011.8
20200803002330 25 148 0.0 3.2 0.00 0.58 0.58 95 1011.7
20200803001320 25 160 0.0 0.0 0.00 0.58 0.58 94 1011.7
20200803000335 25 160 0.0 0.0 0.00 0.58 0.58 94 1011.7
20200802235322 26 167 0.0 1.6 0.00 0.58 0.58 93 1011.8
20200802234337 26 150 0.0 4.8 0.00 0.58 0.58 92 1011.8
20200802233325 26 157 0.0 4.8 0.00 0.58 0.58 92 1011.8
20200802232316 26 151 0.0 1.6 0.00 0.58 0.58 92 1011.6
20200802231325 26 148 0.0 1.6 0.00 0.58 0.58 93 1011.6
20200802230313 26 164 0.0 1.6 0.00 0.58 0.58 92 1011.7
20200802225320 26 164 0.0 6.4 0.00 0.58 0.58 93 1011.6
20200802224338 26 148 0.0 1.6 0.00 0.58 0.58 94 1011.6
20200802223325 26 143 0.0 4.8 0.00 0.58 0.58 95 1011.6
20200802222314 26 162 0.0 1.6 0.00 0.58 0.58 95 1011.8
20200802221322 26 153 0.0 0.0 0.00 0.58 0.58 95 1011.9
20200802220330 26 153 0.0 0.0 0.00 0.58 0.58 95 1012.0
20200802215335 26 93 0.0 1.6 0.00 0.58 0.58 95 1012.0
20200802214322 26 44 0.0 3.2 0.00 0.58 0.58 95 1012.1
20200802213312 26 153 0.0 1.6 0.00 0.58 0.58 95 1012.2
20200802212327 26 153 0.0 1.6 0.00 0.58 0.58 95 1012.2
20200802211316 26 182 0.0 6.4 0.00 0.58 0.58 94 1012.3
20200802210324 26 166 0.0 1.6 0.00 0.58 0.58 95 1012.3
20200802205312 26 188 0.0 1.6 0.00 0.58 0.58 96 1012.3
20200802204331 26 206 0.0 0.0 0.00 0.58 0.58 97 1012.2
20200802203322 26 206 0.0 0.0 0.00 0.58 0.58 97 1012.4
20200802202323 26 168 0.0 0.0 0.00 0.58 0.58 97 1012.4
20200802200314 25 156 0.0 1.6 0.00 0.58 0.58 98 1012.7
20200802195320 25 170 0.0 0.0 0.00 0.58 0.58 98 1012.7
20200802194330 25 170 0.0 0.0 0.00 0.58 0.58 98 1012.8
20200802193322 25 162 0.0 0.0 0.00 0.58 0.58 98 1012.8
20200802192333 25 159 0.0 0.0 0.00 0.58 0.58 98 1012.8
20200802191323 25 157 0.0 0.0 0.00 0.58 0.58 98 1013.0
20200802190332 25 154 0.0 0.0 0.00 0.58 0.58 98 1013.1
20200802185314 25 154 0.0 0.0 0.03 0.58 0.58 98 1013.2
20200802184320 25 155 0.0 3.2 0.23 0.58 0.58 98 1013.2
20200802183326 25 236 0.0 0.0 0.23 0.58 0.58 98 1013.1
20200802182314 24 236 0.0 0.0 0.23 0.58 0.58 98 1013.3
20200802181328 24 218 0.0 0.0 0.33 0.58 0.58 98 1013.3
20200802180314 24 218 0.0 0.0 0.43 0.58 0.58 98 1013.6
20200802174328 24 148 0.0 1.6 0.25 0.36 0.36 98 1013.6
20200802173317 24 153 0.0 0.0 0.28 0.36 0.36 98 1013.5
20200802172323 23 174 0.0 3.2 0.36 0.36 0.36 97 1013.5
20200802171329 23 63 0.0 1.6 0.23 0.23 0.23 97 1013.7
20200802170337 23 59 0.0 1.6 0.15 0.15 0.15 96 1013.8
20200802165323 23 160 0.0 0.0 0.15 0.15 0.15 95 1013.8
20200802164336 24 160 0.0 0.0 0.10 0.10 0.10 93 1014.1
20200802163322 25 160 0.0 0.0 0.08 0.08 0.08 92 1014.3
20200802162329 25 184 0.0 0.0 0.00 0.00 0.00 91 1014.2
20200802161316 25 179 0.0 1.6 0.00 0.00 0.00 90 1014.3
20200802160323 25 179 0.0 1.6 0.00 0.00 0.00 89 1014.3
20200802155329 25 158 0.0 1.6 0.00 0.00 0.00 88 1014.5
20200802154338 25 146 0.0 4.8 0.00 0.00 0.00 88 1014.8
20200802153326 25 238 0.0 1.6 0.00 0.00 0.00 87 1015.0